Location: Rotheul
(50.2849°N, 11.2349°E)
Time: 06:42:51
(UTC+01:00)

ISS - Pass Details

Date: 11 November 2018
Orbit: 402 x 408 km, 51.6° (Epoch: 16 November)

Event Time Altitude Azimuth Distance (km) Brightness Sun altitude
Exits shadow 05:08:42 50° 149° (SSE) 520 -3.2 -21.3°
Drops below altitude 10° 05:11:21 10° 120° (ESE) 1,461 -0.1 -20.9°
Sets 05:13:26 0° 118° (ESE) 2,320 1.2 -20.5°
